Location: Wildcat Hills Observatory
(41.6350°N, 103.6812°W)
Time: 13:25:58
(UTC-07:00)

Daily predictions for brighter satellites

Satellite Brightness Start Highest point End
(mag) Time Altitude Azimuth Time Altitude Azimuth Time Altitude Azimuth
Cosmos 841 Rocket 4.2 17:19:18 10° SSW 17:24:30 58° WNW 17:29:42 10° NNE
SKYMED 2 4.4 17:22:50 10° NNE 17:26:43 31° E 17:30:34 10° SSE
Cosmos 2084 4.0 17:25:31 10° SW 17:29:17 48° NW 17:32:59 10° NNE
Cosmos 2297 4.2 17:24:34 10° N 17:29:51 37° ENE 17:35:07 10° SE
Cosmos 1500 Rocket 3.6 17:27:46 10° S 17:32:06 90° WSW 17:36:30 10° N
Meteor 2-10 4.3 17:27:15 10° N 17:32:10 45° ENE 17:37:11 10° SSE
Cosmos 1844 Rocket 4.0 17:27:26 10° NW 17:32:48 45° WSW 17:38:07 10° S
Thor Agena Rocket 3.6 17:28:21 10° NNE 17:33:36 78° ESE 17:38:45 10° S
Cosmos 2058 3.3 17:30:25 10° SSE 17:34:17 42° E 17:38:11 10° NNE
Meteor 1-28 Rocket 4.4 17:32:17 10° NE 17:35:20 23° E 17:38:22 10° SSE
SPOT 3 Rocket 3.7 17:31:37 10° SSE 17:36:46 84° WSW 17:41:59 10° NNW
Cosmos 1461 3.6 17:33:23 10° S 17:37:11 34° ESE 17:40:54 10° NE
Sich 1 4.4 17:37:16 10° SE 17:40:32 20° E 17:43:49 10° NE
Cosmos 371 Rocket 3.9 17:36:51 10° SSW 17:41:35 58° WNW 17:46:21 10° NNE
SMAP 3.7 17:37:58 10° S 17:42:34 62° W 17:47:12 10° NNW
CZ-4 R/B 4.5 17:38:28 10° SSE 17:42:36 89° E 17:46:47 10° NNW
MONITOR-E 4.2 17:39:58 10° SSE 17:43:06 64° ENE 17:46:15 10° N
NOSS 0 Rocket 4.2 17:39:25 10° SSW 17:45:39 76° WNW 17:51:54 10° NNE
Abrixas 2.6 17:45:39 10° WSW 17:48:33 62° NNW 17:50:53 15° NE
Cosmos 1633 Rocket 4.2 17:46:04 10° SE 17:49:28 22° E 17:52:52 10° NE
BREEZE-M DEB (TANK) 1.4 17:49:45 10° WSW 17:52:44 68° NNW 17:54:14 17° NE
Cosmos 1356 Rocket 4.1 17:51:37 10° SSE 17:55:06 30° E 17:58:38 10° NNE
Cosmos 1980 4.2 17:53:11 10° SW 17:58:47 62° WNW 18:04:26 10° NNE
FREGAT/IRIS 3.9 17:57:44 10° ESE 18:00:08 21° ENE 18:02:32 10° NNE
Lacrosse 5 rocket 1.7 17:56:52 10° NW 18:00:37 62° SW 18:04:33 10° SSE
Aureole 2 Rocket 2.9 17:57:24 10° SSW 18:01:08 75° WNW 18:05:14 10° NNE
IDEFIX/ARIANE 42P 4.2 17:56:57 10° SSW 18:01:46 38° W 18:06:38 10° NNW
ATLAS 5 CENTAUR R/B 4.3 18:02:27 10° N 18:03:41 11° NNE 18:04:56 10° NE
Meteor 1-11 4.3 17:58:38 10° S 18:04:20 89° W 18:10:08 10° N
NOAA 12 4.2 18:00:43 10° SE 18:05:44 49° ENE 18:10:49 10° N
Cosmos 1626 2.4 18:05:22 10° SSE 18:08:56 45° E 18:12:33 10° NNE
Cosmos 1707 Rocket 3.5 18:09:36 10° N 18:13:54 59° E 18:18:10 10° SSE
COSMO-SKYMED 1 2.7 18:10:30 10° N 18:14:51 77° WNW 18:19:11 10° SSW
Cosmos 2219 Rocket 3.9 18:12:43 10° WSW 18:17:37 30° NW 18:22:33 10° N
Cosmos 304 Rocket 3.8 18:12:56 10° SSW 18:17:45 85° WNW 18:22:36 10° NNE
Cosmos 773 Rocket 4.3 18:13:58 10° S 18:18:48 42° ESE 18:22:21 17° NE
Timation 1 Rocket 4.4 18:13:30 10° NNW 18:19:33 83° WSW 18:25:34 10° SSE
Cosmos 2333 Rocket 3.6 18:15:28 10° WSW 18:20:37 36° WNW 18:25:49 10° N
Cosmos 2151 4.5 18:18:19 10° SW 18:22:14 37° WNW 18:26:10 10° N
Cosmos 1603 4.4 18:17:59 10° SSE 18:22:47 30° ESE 18:24:34 25° ENE
Cosmos 1666 Rocket 3.4 18:20:14 10° S 18:24:31 65° E 18:28:53 10° NNE
Cosmos 1455 2.1 18:22:20 10° N 18:26:07 59° E 18:29:53 10° SSE
Resurs 01 Rocket 2.2 18:26:51 25° ESE 18:28:32 33° ENE 18:32:32 10° N
Cosmos 1703 3.5 18:25:25 10° SSW 18:29:17 71° W 18:33:11 10° N
SJ-6B 2.8 18:25:29 10° SSE 18:29:31 64° ENE 18:33:38 10° N
Cosmos 2278 Rocket 3.9 18:24:51 10° NW 18:29:58 35° WSW 18:35:03 10° SSW
USA 215 3.3 18:24:57 15° ESE 18:30:21 64° NE 18:36:49 10° NW
CZ-4C R/B 4.4 18:30:57 10° N 18:34:35 15° NNE 18:35:48 14° NE
Tiangong 1 3.5 18:33:55 10° S 18:34:31 12° SSE 18:34:31 12° SSE
Lacrosse 5 3.9 18:34:26 10° NNW 18:37:07 14° N 18:38:19 13° NNE
TIMED 4.4 18:40:17 10° NNW 18:44:38 60° ENE 18:46:12 36° SE
Cosmos 2237 Rocket 4.1 18:49:57 10° WSW 18:54:35 26° NW 18:59:16 10° N
Lacrosse 4 Rocket 1.2 18:51:09 10° NNW 18:54:54 65° NNE 18:54:54 65° NNE
Cosmos 1470 Rocket 3.8 18:53:13 10° S 18:56:38 49° SE 18:56:38 49° SE
Cosmos 2369 Rocket 3.3 18:53:36 10° N 18:56:59 26° NNE 18:56:59 26° NNE
Cosmos 1184 Rocket 3.8 18:57:07 10° SSW 19:00:20 46° WNW 19:01:08 37° NW
Cosmos 2242 Rocket 3.5 18:56:06 10° N 19:00:32 83° W 19:04:58 10° S
SL-16 R/B 3.1 18:56:32 10° SW 19:01:59 48° WNW 19:06:55 13° NNE
ALOS 2.1 18:58:05 10° SSE 19:02:45 83° ENE 19:07:26 10° N
Spot 2 Rocket 3.3 19:01:24 10° SSE 19:06:27 81° ENE 19:11:30 10° NNW
Nadezhda 4 Rocket 4.5 19:02:46 10° SSW 19:08:56 60° W 19:15:12 10° N
Cosmos 1869 3.8 19:08:04 10° NNW 19:12:04 60° W 19:16:03 10° S
Cosmos 2026 Rocket 3.9 19:06:42 10° S 19:12:47 61° E 19:13:47 54° NE
Cosmos 292 Rocket 3.7 19:09:27 10° SSW 19:13:48 73° S 19:13:48 73° S
USA 229 DEB 3.6 19:07:22 10° SW 19:14:15 86° WNW 19:17:14 38° NNE
USA 229 3.6 19:07:28 10° SW 19:14:20 87° WNW 19:17:17 38° NNE
Iridium 4 Rocket 3.5 19:11:43 10° SSW 19:16:10 61° W 19:18:11 29° NNW
Cosmos 923 Rocket 4.3 19:25:31 10° SSW 19:30:40 64° WNW 19:31:21 58° NNW
FENGYUN 3A 4.1 19:25:41 10° S 19:30:56 59° W 19:36:16 10° NNW
Meteor 2-20 4.4 19:28:31 10° S 19:33:46 67° SSE 19:33:46 67° SSE
Cosmos 1680 Rocket 3.8 19:32:16 10° SSW 19:36:44 62° WSW 19:36:44 62° WSW
ATLAS 5 CENTAUR R/B 4.1 19:44:51 10° NNW 19:46:55 20° N 19:46:55 20° N
Resurs 01 Rocket 3.9 20:04:24 22° WSW 20:05:03 23° W 20:08:36 10° NW
USA 215 4.3 20:12:20 36° SSW 20:13:32 39° SW 20:19:36 10° WNW
CZ-4C R/B 4.4 20:18:27 10° NNW 20:21:00 23° NNW 20:21:00 23° NNW
